Location: Newark
(44.9000°N, 9.6000°E)
Time: 14:02:23
(UTC+00:00)

ISS - Pass Details

Date: 24 January 2020
Orbit: 415 x 423 km, 51.6° (Epoch: 01 March)

Event Time Altitude Azimuth Distance (km) Brightness Sun altitude
Rises 18:54:28 0° 273° (W) 2,377 1.4 -27.6°
Reaches altitude 10° 18:56:45 10° 284° (WNW) 1,512 0.0 -28.0°
Enters shadow 18:57:56 18° 298° (WNW) 1,115 -1.0 -28.2°
